Time,TemperatureF,DewpointF,PressureIn,WindDirection,WindDirectionDegrees,WindSpeedMPH,WindSpeedGustMPH,Humidity,HourlyPrecipIn,Conditions,Clouds,dailyrainin,SoftwareType,DateUTC
2013-01-20 00:02:00,44.0,31.0,30.04,WSW,241,8.0,17.0,61,0.00,,,0.00,,2013-01-20 06:02:00,
2013-01-20 00:12:00,44.0,31.0,30.04,WSW,241,8.0,17.0,61,0.00,,,0.00,,2013-01-20 06:12:00,
2013-01-20 00:22:00,44.0,32.0,30.05,SW,230,8.0,17.0,63,0.00,,,0.00,,2013-01-20 06:22:00,
2013-01-20 00:33:00,44.0,33.0,30.05,WSW,251,12.0,19.0,65,0.00,,,0.00,,2013-01-20 06:33:00,
2013-01-20 00:42:00,44.0,33.0,30.05,WSW,251,12.0,19.0,65,0.00,,,0.00,,2013-01-20 06:42:00,
2013-01-20 00:52:00,43.0,32.0,30.05,WSW,247,6.0,19.0,64,0.00,,,0.00,,2013-01-20 06:52:00,
2013-01-20 01:02:00,43.0,32.0,30.05,WSW,241,8.0,14.0,66,0.00,,,0.00,,2013-01-20 07:02:00,
2013-01-20 01:12:00,43.0,32.0,30.05,WSW,241,8.0,14.0,66,0.00,,,0.00,,2013-01-20 07:12:00,
2013-01-20 01:22:00,42.0,32.0,30.05,West,261,6.0,14.0,68,0.00,,,0.00,,2013-01-20 07:22:00,
2013-01-20 01:32:00,42.0,32.0,30.05,WSW,256,6.0,12.0,68,0.00,,,0.00,,2013-01-20 07:32:00,
2013-01-20 01:42:00,42.0,32.0,30.05,WSW,256,6.0,12.0,68,0.00,,,0.00,,2013-01-20 07:42:00,
2013-01-20 01:52:00,42.0,32.0,30.05,WSW,250,5.0,12.0,68,0.00,,,0.00,,2013-01-20 07:52:00,
2013-01-20 02:02:00,42.0,33.0,30.06,WNW,289,2.0,12.0,70,0.00,,,0.00,,2013-01-20 08:02:00,
2013-01-20 02:12:00,42.0,33.0,30.06,WNW,289,2.0,12.0,70,0.00,,,0.00,,2013-01-20 08:12:00,
2013-01-20 02:22:00,41.0,32.0,30.06,WNW,287,8.0,12.0,69,0.00,,,0.00,,2013-01-20 08:22:00,
2013-01-20 02:32:00,41.0,32.0,30.07,WNW,288,2.0,11.0,71,0.00,,,0.00,,2013-01-20 08:32:00,
2013-01-20 02:42:00,41.0,32.0,30.07,WNW,288,2.0,11.0,71,0.00,,,0.00,,2013-01-20 08:42:00,
2013-01-20 02:52:00,39.0,31.0,30.07,West,277,2.0,11.0,74,0.00,,,0.00,,2013-01-20 08:52:00,
2013-01-20 03:02:00,39.0,31.0,30.08,West,278,2.0,8.0,74,0.00,,,0.00,,2013-01-20 09:02:00,
2013-01-20 03:12:00,39.0,31.0,30.08,West,278,2.0,8.0,74,0.00,,,0.00,,2013-01-20 09:12:00,
2013-01-20 03:22:00,38.0,31.0,30.08,West,272,1.0,8.0,75,0.00,,,0.00,,2013-01-20 09:22:00,
2013-01-20 03:33:00,38.0,32.0,30.09,NW,306,2.0,8.0,78,0.00,,,0.00,,2013-01-20 09:33:00,
2013-01-20 03:42:00,38.0,32.0,30.09,NW,306,2.0,8.0,78,0.00,,,0.00,,2013-01-20 09:42:00,
2013-01-20 03:52:00,38.0,32.0,30.09,NW,306,2.0,8.0,78,0.00,,,0.00,,2013-01-20 09:52:00,
2013-01-20 04:02:00,36.0,30.0,30.09,West,278,0.0,6.0,80,0.00,,,0.00,,2013-01-20 10:02:00,
2013-01-20 04:12:00,36.0,30.0,30.09,West,278,0.0,6.0,80,0.00,,,0.00,,2013-01-20 10:12:00,
2013-01-20 04:22:00,36.0,31.0,30.09,West,278,1.0,6.0,83,0.00,,,0.00,,2013-01-20 10:22:00,
2013-01-20 04:32:00,36.0,31.0,30.09,West,268,1.0,6.0,83,0.00,,,0.00,,2013-01-20 10:32:00,
2013-01-20 04:42:00,36.0,31.0,30.09,West,268,1.0,6.0,83,0.00,,,0.00,,2013-01-20 10:42:00,
2013-01-20 04:52:00,36.0,31.0,30.09,NW,311,1.0,6.0,83,0.00,,,0.00,,2013-01-20 10:52:00,
2013-01-20 05:02:00,35.0,30.0,30.09,West,277,0.0,6.0,83,0.00,,,0.00,,2013-01-20 11:02:00,
2013-01-20 05:12:00,35.0,31.0,30.09,WNW,284,0.0,6.0,85,0.00,,,0.00,,2013-01-20 11:12:00,
2013-01-20 05:22:00,35.0,31.0,30.09,WNW,284,0.0,6.0,85,0.00,,,0.00,,2013-01-20 11:22:00,
2013-01-20 05:33:00,34.0,30.0,30.10,WNW,284,0.0,6.0,85,0.00,,,0.00,,2013-01-20 11:33:00,
2013-01-20 05:42:00,34.0,30.0,30.10,WNW,284,0.0,6.0,85,0.00,,,0.00,,2013-01-20 11:42:00,
2013-01-20 05:53:00,33.0,29.0,30.11,WNW,285,0.0,6.0,85,0.00,,,0.00,,2013-01-20 11:53:00,
2013-01-20 06:03:00,33.0,30.0,30.11,WNW,284,0.0,5.0,87,0.00,,,0.00,,2013-01-20 12:03:00,
2013-01-20 06:12:00,33.0,30.0,30.11,WNW,284,0.0,5.0,87,0.00,,,0.00,,2013-01-20 12:12:00,
2013-01-20 06:22:00,32.0,29.0,30.12,WNW,299,1.0,5.0,88,0.00,,,0.00,,2013-01-20 12:22:00,
2013-01-20 06:33:00,32.0,29.0,30.12,WNW,301,1.0,5.0,90,0.00,,,0.00,,2013-01-20 12:33:00,
2013-01-20 06:43:00,32.0,29.0,30.12,WNW,301,1.0,5.0,90,0.00,,,0.00,,2013-01-20 12:43:00,
2013-01-20 06:52:00,32.0,30.0,30.13,WNW,299,0.0,5.0,91,0.00,,,0.00,,2013-01-20 12:52:00,
2013-01-20 07:02:00,32.0,30.0,30.14,WNW,299,0.0,3.0,92,0.00,,,0.00,,2013-01-20 13:02:00,
2013-01-20 07:12:00,32.0,30.0,30.14,WNW,299,0.0,3.0,92,0.00,,,0.00,,2013-01-20 13:12:00,
2013-01-20 07:23:00,32.0,30.0,30.14,WNW,302,1.0,3.0,92,0.00,,,0.00,,2013-01-20 13:23:00,
2013-01-20 07:33:00,32.0,30.0,30.15,North,356,6.0,6.0,91,0.00,,,0.00,,2013-01-20 13:33:00,
2013-01-20 07:43:00,32.0,30.0,30.15,North,356,6.0,6.0,91,0.00,,,0.00,,2013-01-20 13:43:00,
2013-01-20 07:52:00,35.0,32.0,30.16,North,356,2.0,5.0,87,0.00,,,0.00,,2013-01-20 13:52:00,
2013-01-20 08:02:00,36.0,31.0,30.16,North,354,3.0,10.0,81,0.00,,,0.00,,2013-01-20 14:02:00,
2013-01-20 08:12:00,36.0,31.0,30.16,North,354,3.0,10.0,81,0.00,,,0.00,,2013-01-20 14:12:00,
2013-01-20 08:22:00,37.0,30.0,30.17,North,357,0.0,10.0,77,0.00,,,0.00,,2013-01-20 14:22:00,
2013-01-20 08:33:00,38.0,29.0,30.17,ENE,71,2.0,7.0,70,0.00,,,0.00,,2013-01-20 14:33:00,
2013-01-20 08:42:00,38.0,29.0,30.17,ENE,71,2.0,7.0,70,0.00,,,0.00,,2013-01-20 14:42:00,
2013-01-20 08:52:00,39.0,29.0,30.18,East,85,2.0,7.0,68,0.00,,,0.00,,2013-01-20 14:52:00,
2013-01-20 09:03:00,40.0,31.0,30.18,East,88,7.0,7.0,69,0.00,,,0.00,,2013-01-20 15:03:00,
2013-01-20 09:12:00,40.0,31.0,30.18,East,88,7.0,7.0,69,0.00,,,0.00,,2013-01-20 15:12:00,
2013-01-20 09:23:00,41.0,31.0,30.18,North,359,5.0,7.0,66,0.00,,,0.00,,2013-01-20 15:23:00,
2013-01-20 09:33:00,41.0,31.0,30.18,ENE,66,6.0,12.0,66,0.00,,,0.00,,2013-01-20 15:33:00,
2013-01-20 09:42:00,41.0,31.0,30.18,ENE,66,6.0,12.0,66,0.00,,,0.00,,2013-01-20 15:42:00,
2013-01-20 09:52:00,41.0,31.0,30.19,NNE,28,6.0,12.0,66,0.00,,,0.00,,2013-01-20 15:52:00,
2013-01-20 10:03:00,42.0,30.0,30.20,North,353,2.0,12.0,63,0.00,,,0.00,,2013-01-20 16:03:00,
2013-01-20 10:12:00,42.0,30.0,30.20,North,353,2.0,12.0,63,0.00,,,0.00,,2013-01-20 16:12:00,
2013-01-20 10:23:00,42.0,31.0,30.20,NE,37,7.0,12.0,64,0.00,,,0.00,,2013-01-20 16:23:00,
2013-01-20 10:33:00,42.0,30.0,30.21,North,8,2.0,13.0,61,0.00,,,0.00,,2013-01-20 16:33:00,
2013-01-20 10:43:00,42.0,30.0,30.21,North,8,2.0,13.0,61,0.00,,,0.00,,2013-01-20 16:43:00,
2013-01-20 10:52:00,42.0,30.0,30.21,ENE,69,6.0,13.0,61,0.00,,,0.00,,2013-01-20 16:52:00,
2013-01-20 11:03:00,43.0,29.0,30.21,North,0,3.0,13.0,57,0.00,,,0.00,,2013-01-20 17:03:00,
2013-01-20 11:12:00,43.0,29.0,30.21,North,0,3.0,13.0,57,0.00,,,0.00,,2013-01-20 17:12:00,
2013-01-20 11:22:00,43.0,29.0,30.21,North,0,3.0,13.0,57,0.00,,,0.00,,2013-01-20 17:22:00,
2013-01-20 11:33:00,43.0,26.0,30.20,East,88,6.0,10.0,50,0.00,,,0.00,,2013-01-20 17:33:00,
2013-01-20 11:43:00,43.0,26.0,30.20,East,88,6.0,10.0,50,0.00,,,0.00,,2013-01-20 17:43:00,
2013-01-20 11:53:00,43.0,26.0,30.20,East,88,6.0,10.0,50,0.00,,,0.00,,2013-01-20 17:53:00,
2013-01-20 12:03:00,44.0,25.0,30.18,NE,52,1.0,11.0,46,0.00,,,0.00,,2013-01-20 18:03:00,
2013-01-20 12:13:00,44.0,23.0,30.17,South,176,2.0,11.0,44,0.00,,,0.00,,2013-01-20 18:13:00,
2013-01-20 12:23:00,44.0,23.0,30.17,South,176,2.0,11.0,44,0.00,,,0.00,,2013-01-20 18:23:00,
2013-01-20 12:33:00,44.0,23.0,30.16,SSE,147,5.0,11.0,43,0.00,,,0.00,,2013-01-20 18:33:00,
2013-01-20 12:43:00,44.0,23.0,30.16,SSE,147,5.0,11.0,43,0.00,,,0.00,,2013-01-20 18:43:00,
2013-01-20 12:53:00,45.0,25.0,30.15,SSE,160,5.0,11.0,45,0.00,,,0.00,,2013-01-20 18:53:00,
2013-01-20 13:02:00,45.0,22.0,30.14,ESE,109,0.0,10.0,40,0.00,,,0.00,,2013-01-20 19:02:00,
2013-01-20 13:12:00,45.0,22.0,30.14,East,96,4.0,10.0,40,0.00,,,0.00,,2013-01-20 19:12:00,
2013-01-20 13:22:00,45.0,22.0,30.14,East,96,4.0,10.0,40,0.00,,,0.00,,2013-01-20 19:22:00,
2013-01-20 13:33:00,46.0,22.0,30.14,NNE,30,3.0,10.0,38,0.00,,,0.00,,2013-01-20 19:33:00,
2013-01-20 13:43:00,46.0,22.0,30.14,NNE,30,3.0,10.0,38,0.00,,,0.00,,2013-01-20 19:43:00,
2013-01-20 13:52:00,45.0,20.0,30.14,East,85,1.0,10.0,36,0.00,,,0.00,,2013-01-20 19:52:00,
2013-01-20 14:03:00,45.0,16.0,30.14,WNW,298,3.0,11.0,31,0.00,,,0.00,,2013-01-20 20:03:00,
2013-01-20 14:12:00,45.0,16.0,30.14,WNW,298,3.0,11.0,31,0.00,,,0.00,,2013-01-20 20:12:00,
2013-01-20 14:22:00,45.0,18.0,30.14,East,92,6.0,11.0,33,0.00,,,0.00,,2013-01-20 20:22:00,
2013-01-20 14:33:00,46.0,19.0,30.14,SSE,152,5.0,8.0,33,0.00,,,0.00,,2013-01-20 20:33:00,
2013-01-20 14:42:00,46.0,19.0,30.14,SSE,152,5.0,8.0,33,0.00,,,0.00,,2013-01-20 20:42:00,
2013-01-20 14:53:00,46.0,16.0,30.13,North,354,4.0,8.0,29,0.00,,,0.00,,2013-01-20 20:53:00,
2013-01-20 15:03:00,47.0,16.0,30.13,East,83,1.0,8.0,29,0.00,,,0.00,,2013-01-20 21:03:00,
2013-01-20 15:13:00,47.0,16.0,30.13,East,83,1.0,8.0,29,0.00,,,0.00,,2013-01-20 21:13:00,
2013-01-20 15:23:00,46.0,16.0,30.12,NE,55,1.0,8.0,29,0.00,,,0.00,,2013-01-20 21:23:00,
2013-01-20 15:33:00,46.0,16.0,30.12,NW,326,1.0,8.0,29,0.00,,,0.00,,2013-01-20 21:33:00,
2013-01-20 15:43:00,46.0,16.0,30.12,NW,326,1.0,8.0,29,0.00,,,0.00,,2013-01-20 21:43:00,
2013-01-20 15:53:00,45.0,14.0,30.12,East,93,5.0,8.0,28,0.00,,,0.00,,2013-01-20 21:53:00,
2013-01-20 16:03:00,45.0,17.0,30.13,East,95,0.0,7.0,32,0.00,,,0.00,,2013-01-20 22:03:00,
2013-01-20 16:13:00,45.0,17.0,30.13,East,95,0.0,7.0,32,0.00,,,0.00,,2013-01-20 22:13:00,
2013-01-20 16:22:00,44.0,17.0,30.13,North,356,1.0,7.0,33,0.00,,,0.00,,2013-01-20 22:22:00,
2013-01-20 16:33:00,44.0,16.0,30.14,South,172,2.0,7.0,32,0.00,,,0.00,,2013-01-20 22:33:00,
2013-01-20 16:43:00,44.0,16.0,30.14,South,172,2.0,7.0,32,0.00,,,0.00,,2013-01-20 22:43:00,
2013-01-20 16:52:00,43.0,18.0,30.14,NNE,21,3.0,7.0,36,0.00,,,0.00,,2013-01-20 22:52:00,
2013-01-20 17:03:00,42.0,18.0,30.14,NE,35,5.0,7.0,37,0.00,,,0.00,,2013-01-20 23:03:00,
2013-01-20 17:13:00,42.0,18.0,30.14,NE,35,5.0,7.0,37,0.00,,,0.00,,2013-01-20 23:13:00,
2013-01-20 17:23:00,42.0,18.0,30.14,NE,34,0.0,7.0,37,0.00,,,0.00,,2013-01-20 23:23:00,
2013-01-20 17:33:00,41.0,17.0,30.14,NE,34,0.0,6.0,38,0.00,,,0.00,,2013-01-20 23:33:00,
2013-01-20 17:43:00,41.0,17.0,30.14,NE,34,0.0,6.0,38,0.00,,,0.00,,2013-01-20 23:43:00,
2013-01-20 17:53:00,39.0,18.0,30.14,NE,34,1.0,6.0,42,0.00,,,0.00,,2013-01-20 23:53:00,
2013-01-20 18:03:00,38.0,16.0,30.15,NE,37,0.0,7.0,41,0.00,,,0.00,,2013-01-21 00:03:00,
2013-01-20 18:13:00,38.0,16.0,30.15,NE,37,0.0,7.0,41,0.00,,,0.00,,2013-01-21 00:13:00,
2013-01-20 18:22:00,38.0,16.0,30.14,NE,37,0.0,7.0,41,0.00,,,0.00,,2013-01-21 00:22:00,
2013-01-20 18:33:00,37.0,16.0,30.14,ESE,104,0.0,5.0,41,0.00,,,0.00,,2013-01-21 00:33:00,
2013-01-20 18:43:00,37.0,16.0,30.14,ESE,104,0.0,5.0,41,0.00,,,0.00,,2013-01-21 00:43:00,
2013-01-20 18:53:00,36.0,16.0,30.15,SSE,168,0.0,5.0,44,0.00,,,0.00,,2013-01-21 00:53:00,
2013-01-20 19:03:00,35.0,16.0,30.15,NE,40,0.0,6.0,45,0.00,,,0.00,,2013-01-21 01:03:00,
2013-01-20 19:13:00,35.0,16.0,30.15,NE,40,0.0,6.0,45,0.00,,,0.00,,2013-01-21 01:13:00,
2013-01-20 19:23:00,34.0,18.0,30.15,NE,40,0.0,6.0,52,0.00,,,0.00,,2013-01-21 01:23:00,
2013-01-20 19:33:00,34.0,18.0,30.15,NE,40,1.0,3.0,52,0.00,,,0.00,,2013-01-21 01:33:00,
2013-01-20 19:43:00,34.0,18.0,30.15,NE,40,1.0,3.0,52,0.00,,,0.00,,2013-01-21 01:43:00,
2013-01-20 19:52:00,33.0,17.0,30.15,NE,44,0.0,3.0,51,0.00,,,0.00,,2013-01-21 01:52:00,
2013-01-20 20:03:00,33.0,17.0,30.15,NE,48,2.0,3.0,51,0.00,,,0.00,,2013-01-21 02:03:00,
2013-01-20 20:12:00,33.0,17.0,30.15,NE,48,2.0,3.0,51,0.00,,,0.00,,2013-01-21 02:12:00,
2013-01-20 20:23:00,33.0,17.0,30.15,NE,48,2.0,3.0,51,0.00,,,0.00,,2013-01-21 02:23:00,
2013-01-20 20:33:00,33.0,18.0,30.15,NNE,24,2.0,10.0,53,0.00,,,0.00,,2013-01-21 02:33:00,
2013-01-20 20:43:00,33.0,18.0,30.15,NNE,24,2.0,10.0,53,0.00,,,0.00,,2013-01-21 02:43:00,
2013-01-20 20:53:00,32.0,17.0,30.14,NNE,27,1.0,10.0,53,0.00,,,0.00,,2013-01-21 02:53:00,
2013-01-20 21:03:00,32.0,16.0,30.14,NNE,20,3.0,10.0,52,0.00,,,0.00,,2013-01-21 03:03:00,
2013-01-20 21:13:00,32.0,16.0,30.14,NNE,20,3.0,10.0,52,0.00,,,0.00,,2013-01-21 03:13:00,
2013-01-20 21:23:00,31.0,17.0,30.14,NNE,32,2.0,10.0,55,0.00,,,0.00,,2013-01-21 03:23:00,
2013-01-20 21:33:00,31.0,17.0,30.13,NNE,28,7.0,7.0,55,0.00,,,0.00,,2013-01-21 03:33:00,
2013-01-20 21:43:00,31.0,17.0,30.13,NNE,28,7.0,7.0,55,0.00,,,0.00,,2013-01-21 03:43:00,
2013-01-20 21:52:00,31.0,17.0,30.13,NE,44,0.0,6.0,56,0.00,,,0.00,,2013-01-21 03:52:00,
2013-01-20 22:03:00,30.0,16.0,30.13,NE,44,3.0,8.0,55,0.00,,,0.00,,2013-01-21 04:03:00,
2013-01-20 22:12:00,30.0,16.0,30.13,NE,44,3.0,8.0,55,0.00,,,0.00,,2013-01-21 04:12:00,
2013-01-20 22:23:00,30.0,16.0,30.13,NE,44,2.0,8.0,55,0.00,,,0.00,,2013-01-21 04:23:00,
2013-01-20 22:33:00,29.0,16.0,30.13,NE,44,1.0,5.0,57,0.00,,,0.00,,2013-01-21 04:33:00,
2013-01-20 22:43:00,29.0,16.0,30.13,NE,44,1.0,5.0,57,0.00,,,0.00,,2013-01-21 04:43:00,
2013-01-20 22:53:00,29.0,16.0,30.14,NE,44,2.0,5.0,58,0.00,,,0.00,,2013-01-21 04:53:00,
2013-01-20 23:03:00,28.0,16.0,30.14,NE,44,0.0,3.0,59,0.00,,,0.00,,2013-01-21 05:03:00,
2013-01-20 23:12:00,28.0,16.0,30.14,NE,44,0.0,3.0,59,0.00,,,0.00,,2013-01-21 05:12:00,
2013-01-20 23:22:00,28.0,16.0,30.14,NE,44,0.0,3.0,59,0.00,,,0.00,,2013-01-21 05:22:00,
2013-01-20 23:34:00,27.0,16.0,30.14,NE,45,1.0,3.0,64,0.00,,,0.00,,2013-01-21 05:34:00,
2013-01-20 23:42:00,27.0,16.0,30.14,NE,45,1.0,3.0,64,0.00,,,0.00,,2013-01-21 05:42:00,
2013-01-20 23:52:00,27.0,18.0,30.14,NE,45,0.0,3.0,67,0.00,,,0.00,,2013-01-21 05:52:00,